When you browse on this site, cookies collect data to enhance your experience and personalize the content and advertising you see.
Visit our Privacy Policy to learn more. By continuing to use the site, you agree to this use of cookies and data.
  • In Switzerland
  • List of Countries
  • For 7 days
  • Water Temperature
  • Weather Map
  • Weather Widgets
  • user-avatar
    Login

    Hourly Weather Mazari Sharif

    Today, 16 October, Wednesday

    Time Temperature Precipitation Wind Pressure Humidity
    00:00 +7°C° 0 mm 0 mps 656 mmHg 64%
    01:00 +7°C° 0 mm 0 mps 656 mmHg 65%
    02:00 +6°C° 0 mm 0 mps 656 mmHg 65%
    03:00 +6°C° 0 mm 0 mps 655 mmHg 66%
    04:00 +6°C° 0 mm 0 mps 655 mmHg 67%
    05:00 +8°C° 0 mm 0 mps 656 mmHg 58%
    06:00 +10°C° 0 mm 0 mps 657 mmHg 50%
    07:00 +12°C° 0 mm 0 mps 658 mmHg 41%
    08:00 +14°C° 0 mm 1 mps 658 mmHg 37%
    09:00 +16°C° 0 mm 1 mps 658 mmHg 33%
    10:00 +18°C° 0 mm 2 mps 659 mmHg 29%
    11:00 +19°C° 0 mm 2 mps 658 mmHg 28%
    12:00 +19°C° 0 mm 3 mps 658 mmHg 27%
    13:00 +20°C° 0 mm 3 mps 657 mmHg 25%
    14:00 +20°C° 0 mm 3 mps 657 mmHg 26%
    15:00 +19°C° 0 mm 2 mps 657 mmHg 27%
    16:00 +18°C° 0 mm 2 mps 657 mmHg 27%
    17:00 +16°C° 0 mm 2 mps 657 mmHg 34%
    18:00 +14°C° 0 mm 1 mps 656 mmHg 40%
    19:00 +11°C° 0 mm 1 mps 656 mmHg 46%
    20:00 +11°C° 0 mm 1 mps 656 mmHg 47%
    21:00 +10°C° 0 mm 1 mps 656 mmHg 48%
    22:00 +10°C° 0 mm 1 mps 656 mmHg 49%
    23:00 +10°C° 0 mm 1 mps 656 mmHg 49%

    Tomorrow, 17 October, Thursday

    Time Temperature Precipitation Wind Pressure Humidity
    00:00 +10°C° 0 mm 1 mps 656 mmHg 49%
    01:00 +10°C° 0 mm 1 mps 656 mmHg 49%
    02:00 +9°C° 0 mm 1 mps 656 mmHg 49%
    03:00 +9°C° 0 mm 1 mps 656 mmHg 50%
    04:00 +9°C° 0 mm 1 mps 656 mmHg 50%
    05:00 +10°C° 0 mm 1 mps 657 mmHg 44%
    06:00 +12°C° 0 mm 1 mps 657 mmHg 38%
    07:00 +14°C° 0 mm 1 mps 658 mmHg 33%
    08:00 +15°C° 0 mm 1 mps 659 mmHg 29%
    09:00 +17°C° 0 mm 2 mps 659 mmHg 26%
    10:00 +18°C° 0 mm 2 mps 660 mmHg 23%
    11:00 +19°C° 0 mm 2 mps 660 mmHg 22%
    12:00 +20°C° 0 mm 3 mps 659 mmHg 21%
    13:00 +20°C° 0 mm 3 mps 659 mmHg 20%
    14:00 +20°C° 0 mm 3 mps 659 mmHg 20%
    15:00 +19°C° 0 mm 3 mps 659 mmHg 21%
    16:00 +19°C° 0 mm 3 mps 659 mmHg 22%
    17:00 +17°C° 0 mm 2 mps 659 mmHg 25%
    18:00 +15°C° 0 mm 2 mps 659 mmHg 29%
    19:00 +13°C° 0 mm 1 mps 658 mmHg 32%
    20:00 +12°C° 0 mm 1 mps 658 mmHg 33%
    21:00 +12°C° 0 mm 1 mps 658 mmHg 34%
    22:00 +12°C° 0 mm 2 mps 658 mmHg 34%
    23:00 +11°C° 0 mm 1 mps 658 mmHg 37%

    Day after tomorrow, 18 October, Friday

    Time Temperature Precipitation Wind Pressure Humidity
    00:00 +10°C° 0 mm 1 mps 657 mmHg 40%
    01:00 +10°C° 0 mm 1 mps 657 mmHg 43%
    02:00 +9°C° 0 mm 1 mps 657 mmHg 44%
    03:00 +9°C° 0 mm 1 mps 657 mmHg 44%
    04:00 +9°C° 0 mm 1 mps 657 mmHg 44%
    05:00 +10°C° 0 mm 1 mps 657 mmHg 39%
    06:00 +12°C° 0 mm 1 mps 658 mmHg 35%
    07:00 +13°C° 0 mm 1 mps 659 mmHg 30%
    08:00 +15°C° 0 mm 1 mps 659 mmHg 27%
    09:00 +18°C° 0 mm 1 mps 660 mmHg 24%
    10:00 +20°C° 0 mm 1 mps 660 mmHg 21%
    11:00 +19°C° 0 mm 2 mps 660 mmHg 20%
    12:00 +20°C° 0 mm 3 mps 659 mmHg 19%
    13:00 +20°C° 0 mm 4 mps 659 mmHg 19%
    14:00 +20°C° 0 mm 3 mps 658 mmHg 20%
    15:00 +19°C° 0 mm 3 mps 658 mmHg 21%
    16:00 +18°C° 0 mm 2 mps 658 mmHg 22%
    17:00 +16°C° 0 mm 2 mps 657 mmHg 27%
    18:00 +13°C° 0 mm 1 mps 656 mmHg 32%
    19:00 +11°C° 0 mm 1 mps 656 mmHg 37%
    20:00 +10°C° 0 mm 1 mps 655 mmHg 38%
    21:00 +10°C° 0 mm 1 mps 655 mmHg 40%
    22:00 +10°C° 0 mm 1 mps 655 mmHg 41%
    23:00 +9°C° 0 mm 1 mps 655 mmHg 45%

    19 October, Saturday

    Time Temperature Precipitation Wind Pressure Humidity
    00:00 +8°C° 0 mm 0 mps 655 mmHg 49%
    01:00 +8°C° 0 mm 0 mps 654 mmHg 53%
    02:00 +7°C° 0 mm 0 mps 654 mmHg 54%
    03:00 +7°C° 0 mm 0 mps 654 mmHg 56%
    04:00 +7°C° 0 mm 0 mps 654 mmHg 57%
    05:00 +9°C° 0 mm 0 mps 655 mmHg 48%
    06:00 +11°C° 0 mm 0 mps 656 mmHg 39%
    07:00 +13°C° 0 mm 0 mps 657 mmHg 30%
    08:00 +16°C° 0 mm 1 mps 657 mmHg 26%
    09:00 +19°C° 0 mm 1 mps 658 mmHg 23%
    10:00 +21°C° 0 mm 1 mps 658 mmHg 19%
    11:00 +21°C° 0 mm 2 mps 658 mmHg 18%
    12:00 +22°C° 0 mm 3 mps 658 mmHg 17%
    13:00 +22°C° 0 mm 4 mps 658 mmHg 16%
    14:00 +22°C° 0 mm 3 mps 657 mmHg 18%
    15:00 +21°C° 0 mm 3 mps 657 mmHg 19%
    16:00 +20°C° 0 mm 2 mps 657 mmHg 20%
    17:00 +17°C° 0 mm 2 mps 656 mmHg 26%
    18:00 +15°C° 0 mm 1 mps 656 mmHg 31%
    19:00 +12°C° 0 mm 1 mps 655 mmHg 36%
    20:00 +12°C° 0 mm 1 mps 656 mmHg 37%
    21:00 +11°C° 0 mm 1 mps 656 mmHg 38%
    22:00 +11°C° 0 mm 1 mps 656 mmHg 39%
    23:00 +10°C° 0 mm 1 mps 655 mmHg 43%

    20 October, Sunday

    Time Temperature Precipitation Wind Pressure Humidity
    00:00 +10°C° 0 mm 1 mps 655 mmHg 48%
    01:00 +9°C° 0 mm 1 mps 655 mmHg 52%
    02:00 +8°C° 0 mm 0 mps 655 mmHg 53%
    03:00 +8°C° 0 mm 0 mps 655 mmHg 54%
    04:00 +7°C° 0 mm 0 mps 655 mmHg 55%
    05:00 +9°C° 0 mm 0 mps 656 mmHg 46%
    06:00 +11°C° 0 mm 0 mps 657 mmHg 38%
    07:00 +13°C° 0 mm 0 mps 658 mmHg 29%
    08:00 +16°C° 0 mm 1 mps 658 mmHg 25%
    09:00 +19°C° 0 mm 1 mps 659 mmHg 22%
    10:00 +20°C° 0 mm 2 mps 660 mmHg 18%
    11:00 +20°C° 0 mm 2 mps 659 mmHg 17%
    12:00 +21°C° 0 mm 3 mps 659 mmHg 16%
    13:00 +22°C° 0 mm 3 mps 659 mmHg 15%
    14:00 +21°C° 0 mm 3 mps 659 mmHg 15%
    15:00 +20°C° 0 mm 3 mps 658 mmHg 16%
    16:00 +19°C° 0 mm 3 mps 658 mmHg 17%
    17:00 +17°C° 0 mm 2 mps 658 mmHg 20%
    18:00 +15°C° 0 mm 1 mps 657 mmHg 23%
    19:00 +12°C° 0 mm 1 mps 657 mmHg 26%
    20:00 +12°C° 0 mm 1 mps 657 mmHg 26%
    21:00 +12°C° 0 mm 1 mps 657 mmHg 25%
    22:00 +12°C° 0 mm 1 mps 657 mmHg 25%
    23:00 +11°C° 0 mm 1 mps 657 mmHg 26%

    21 October, Monday

    Time Temperature Precipitation Wind Pressure Humidity
    00:00 +10°C° 0 mm 0 mps 656 mmHg 28%
    01:00 +9°C° 0 mm 0 mps 656 mmHg 29%
    02:00 +8°C° 0 mm 0 mps 656 mmHg 34%
    03:00 +8°C° 0 mm 0 mps 656 mmHg 39%
    04:00 +7°C° 0 mm 0 mps 656 mmHg 44%
    05:00 +9°C° 0 mm 0 mps 656 mmHg 37%
    06:00 +10°C° 0 mm 0 mps 657 mmHg 30%
    07:00 +12°C° 0 mm 0 mps 658 mmHg 23%
    08:00 +15°C° 0 mm 1 mps 659 mmHg 21%
    09:00 +18°C° 0 mm 1 mps 659 mmHg 18%
    10:00 +19°C° 0 mm 2 mps 660 mmHg 15%
    11:00 +20°C° 0 mm 2 mps 660 mmHg 14%
    12:00 +20°C° 0 mm 3 mps 659 mmHg 13%
    13:00 +21°C° 0 mm 4 mps 659 mmHg 13%
    14:00 +20°C° 0 mm 3 mps 659 mmHg 13%
    15:00 +19°C° 0 mm 3 mps 658 mmHg 14%
    16:00 +18°C° 0 mm 2 mps 658 mmHg 14%
    17:00 +16°C° 0 mm 2 mps 658 mmHg 17%
    18:00 +14°C° 0 mm 1 mps 657 mmHg 19%
    19:00 +12°C° 0 mm 1 mps 657 mmHg 22%
    20:00 +12°C° 0 mm 1 mps 657 mmHg 23%
    21:00 +11°C° 0 mm 1 mps 657 mmHg 23%
    22:00 +11°C° 0 mm 1 mps 656 mmHg 24%
    23:00 +11°C° 0 mm 1 mps 656 mmHg 25%
    Show more